sat.trackr.live / text

‹ back to catalog

STARLINK-31471

NORAD 59568 · 2024-076E

PAYLOAD ACTIVE UNKNOWN

§ Identity

Operator
Country
US
Launch date
2024-04-23
Launch site
AFETR
Launch vehicle
Mass (kg)
RCS (m²)

Purposes: comms

External: N2YO · Heavens-Above · Gunter

§ Orbital elements

Epoch: 2026-09-20T06:36:38.911104Z

Period
94.27 min
Inclination
43.0040°
Eccentricity
0.0001120
Mean motion
15.27577624 rev/d
Perigee alt
482.3 km
Apogee alt
483.8 km
Semi-major
6,861.2 km
B*
-1.8301e-5
RAAN
349.9464°
Arg perigee
273.4557°
Mean anomaly
86.6167°
Rev number
13,617

§ Raw data

STARLINK-314711 59568U 24076E   26263.27545036 -.00000766  00000+0 -18301-4 0  99902 59568  43.0040 349.9464 0001120 273.4557  86.6167 15.27577624136170

JSON: /api/v1/satellites/59568 · /tle

For live sub-satellite position, see the globe view (requires WebGL).

§ Visibility from observer

Set your observer location to see the next 7 days of passes ≥ 10°. The values pass through the URL so the page stays shareable.

No JS? Fill the form by hand. The geolocation button needs JavaScript.